Friday Harbor, WA

10:20 AM PDT on June 23, 2017 (GMT -0700)
Friday Harbor

Weather History for KFHR - November, 2013

Change the Weather History Date:

Monday, November 18, 2013

  Actual Average Record
Temperature  
Mean Temperature 45 °F -  
Max Temperature 46 °F 46 °F 54 °F (2006)
Min Temperature 44 °F 38 °F 30 °F (1996)
Degree Days  
Heating Degree Days 20    
Moisture  
Dew Point 44 °F    
Average Humidity 94    
Maximum Humidity 100    
Minimum Humidity 90    
Precipitation  
Precipitation 0.22 in - - ()
Sea Level Pressure  
Sea Level Pressure 29.74 in    
Wind  
Wind Speed 2 mph (North)    
Max Wind Speed 8 mph    
Max Gust Speed -    
Visibility 8 miles    
Events Rain    
Averages and records for this station are not official NWS values.
T = Trace of Precipitation, MM = Missing Value Source: NWS Daily Summary

Daily Weather History Graph

Daily Weather History Graph

Search for Another Location

Airport or City:

Trip Planner

Search our weather history database for the weather conditions in past years. The results will help you decide how hot, cold, wet, or windy it might be!

Date:

Astronomy

Nov. 18, 2013 Rise Set
Actual Time 7:25 AM PST 4:29 PM PST
Civil Twilight 6:50 AM PST 5:03 PM PST
Nautical Twilight 6:12 AM PST 5:42 PM PST
Astronomical Twilight 5:34 AM PST 6:19 PM PST
Moon 5:34 PM PST (11/18) 8:19 AM PST (11/18)
Length of Visible Light 10h 13m
Length of Day
9h 03m
Full, 99% of the Moon is Illuminated
Nov 18
Full
Nov 25
Last Quarter
Dec 2
New
Dec 9
First Quarter
Dec 17
Full

Hourly Weather History & Observations

Time (PST) Temp. Windchill Dew Point Humidity Pressure Visibility Wind Dir Wind Speed Gust Speed Precip Events Conditions
12:09 AM 44.6 °F - 42.8 °F 93% 29.89 in 10.0 mi Calm Calm - N/A   Overcast
12:53 AM 44.1 °F - 43.0 °F 96% 29.88 in 10.0 mi Calm Calm - 0.00 in Rain Light Rain
1:53 AM 44.1 °F - 43.0 °F 96% 29.89 in 9.0 mi Calm Calm - 0.00 in   Overcast
2:22 AM 44.6 °F - 42.8 °F 93% 29.89 in 8.0 mi Calm Calm - 0.00 in Rain Light Rain
2:38 AM 44.6 °F - 42.8 °F 93% 29.90 in 7.0 mi Calm Calm - 0.00 in   Overcast
2:49 AM 44.6 °F - 42.8 °F 93% 29.90 in 5.0 mi Calm Calm - 0.00 in Rain Light Rain
2:53 AM 45.0 °F - 43.0 °F 93% 29.90 in 4.0 mi Calm Calm - 0.00 in Rain Light Rain
3:53 AM 45.0 °F - 44.1 °F 97% 29.88 in 10.0 mi Calm Calm - 0.00 in Rain Light Rain
4:53 AM 44.1 °F - 43.0 °F 96% 29.88 in 10.0 mi Calm Calm - 0.00 in Rain Light Rain
5:53 AM 44.1 °F - 43.0 °F 96% 29.86 in 9.0 mi Calm Calm - 0.00 in   Overcast
6:24 AM 44.6 °F - 42.8 °F 93% 29.86 in 10.0 mi Calm Calm - N/A   Overcast
6:53 AM 44.1 °F - 43.0 °F 96% 29.86 in 10.0 mi Calm Calm - 0.00 in Rain Light Rain
7:39 AM 44.6 °F 43.1 °F 42.8 °F 93% 29.85 in 10.0 mi NNW 3.5 mph - 0.00 in   Overcast
7:53 AM 44.1 °F - 43.0 °F 96% 29.85 in 10.0 mi Calm Calm - 0.00 in   Overcast
8:02 AM 44.6 °F - 42.8 °F 93% 29.85 in 10.0 mi Calm Calm - N/A   Overcast
8:53 AM 44.1 °F - 43.0 °F 96% 29.84 in 10.0 mi Calm Calm - N/A   Mostly Cloudy
9:48 AM 44.6 °F - 44.6 °F 100% 29.83 in 10.0 mi Calm Calm - N/A   Overcast
9:53 AM 45.0 °F - 44.1 °F 97% 29.83 in 10.0 mi Calm Calm - N/A   Overcast
10:13 AM 46.4 °F - 44.6 °F 93% 29.83 in 10.0 mi Calm Calm - N/A   Overcast
10:53 AM 46.9 °F - 45.0 °F 93% 29.81 in 10.0 mi North 4.6 mph - N/A   Overcast
11:53 AM 46.9 °F - 44.1 °F 90% 29.78 in 10.0 mi NNE 3.5 mph - N/A   Overcast
12:15 PM 46.4 °F 45.2 °F 44.6 °F 93% 29.77 in 8.0 mi North 3.5 mph - 0.00 in Rain Light Rain
12:50 PM 46.4 °F 45.2 °F 44.6 °F 93% 29.75 in 10.0 mi North 3.5 mph - 0.00 in Rain Light Rain
12:53 PM 46.0 °F 44.8 °F 44.1 °F 93% 29.75 in 10.0 mi North 3.5 mph - 0.00 in   Overcast
1:10 PM 46.4 °F - 44.6 °F 93% 29.75 in 8.0 mi Calm Calm - 0.00 in Rain Light Rain
1:53 PM 46.0 °F - 45.0 °F 96% 29.72 in 6.0 mi Calm Calm - 0.00 in Rain Light Rain
2:53 PM 46.0 °F - 45.0 °F 96% 29.69 in 5.0 mi Calm Calm - 0.00 in Rain Light Rain
3:15 PM 46.4 °F 44.3 °F 44.6 °F 93% 29.68 in 5.0 mi North 4.6 mph - 0.00 in Rain Light Rain
3:53 PM 46.9 °F - 45.0 °F 93% 29.66 in 5.0 mi North 4.6 mph - 0.00 in Rain Light Rain
4:07 PM 46.4 °F 42.4 °F 44.6 °F 93% 29.66 in 5.0 mi North 8.1 mph - 0.01 in Rain Light Rain
4:31 PM 46.4 °F 43.5 °F 44.6 °F 93% 29.64 in 5.0 mi North 5.8 mph - 0.03 in Rain Rain
4:53 PM 45.0 °F 40.6 °F 44.1 °F 97% 29.63 in 6.0 mi North 8.1 mph - 0.05 in Rain Light Rain
5:53 PM 46.0 °F 42.5 °F 44.1 °F 93% 29.60 in 10.0 mi North 6.9 mph - 0.00 in Rain Light Rain
6:14 PM 46.4 °F 43.5 °F 44.6 °F 93% 29.59 in 9.0 mi North 5.8 mph - 0.00 in Rain Light Rain
6:53 PM 46.0 °F 44.8 °F 44.1 °F 93% 29.58 in 10.0 mi North 3.5 mph - 0.00 in Rain Light Rain
7:00 PM 46.4 °F - 44.6 °F 93% 29.57 in 10.0 mi Calm Calm - 0.00 in Rain Light Rain
7:53 PM 46.0 °F 43.9 °F 45.0 °F 96% 29.56 in 10.0 mi North 4.6 mph - 0.00 in Rain Light Rain
8:53 PM 46.0 °F 44.8 °F 45.0 °F 96% 29.55 in 10.0 mi Variable 3.5 mph - 0.00 in   Overcast
9:53 PM 46.0 °F 43.1 °F 44.1 °F 93% 29.54 in 8.0 mi NW 5.8 mph - 0.00 in Rain Light Rain
10:21 PM 44.6 °F 40.7 °F 44.6 °F 100% 29.54 in 4.0 mi Variable 6.9 mph - 0.02 in Rain Rain
10:48 PM 44.6 °F 40.2 °F 42.8 °F 93% 29.55 in 5.0 mi NNW 8.1 mph - 0.07 in Rain Rain
10:53 PM 44.1 °F 39.5 °F 43.0 °F 96% 29.55 in 6.0 mi NNW 8.1 mph - 0.08 in Rain Light Rain
11:53 PM 44.1 °F 41.5 °F 43.0 °F 96% 29.57 in 5.0 mi Variable 4.6 mph - 0.09 in Rain Light Rain